Total_Precipitation_Accumulation
0.04 0.04 0.11 0.09 0.07 0.07 0.08 0.11 0.15 0.18 0.18 0.17 0.16 0.16 0.15 0.13 0.13 0.14 0.13 0.13 0.14 0.17 0.21 0.26 0.28 0.29 0.28 0.26 0.27 0.24 0.23 0.22 0.25 0.26 0.28 0.29 0.38 0.57 0.68 0.72 0.80 0.55 0.45
0.01 0.03 0.08 0.07 0.06 0.07 0.09 0.11 0.13 0.14 0.15 0.18 0.17 0.19 0.18 0.15 0.14 0.15 0.14 0.14 0.15 0.15 0.16 0.19 0.19 0.19 0.20 0.19 0.19 0.16 0.17 0.21 0.27 0.34 0.35 0.29 0.40 0.56 0.64 0.70 0.88 0.54 0.49
0.02 0.03 0.06 0.07 0.06 0.06 0.07 0.10 0.12 0.12 0.12 0.14 0.16 0.18 0.20 0.22 0.20 0.17 0.16 0.15 0.16 0.14 0.13 0.12 0.12 0.12 0.12 0.13 0.14 0.16 0.19 0.24 0.33 0.48 0.59 0.36 0.26 0.52 0.63 0.63 0.59 0.44 0.43
0.02 0.02 0.03 0.06 0.06 0.06 0.07 0.09 0.13 0.14 0.12 0.13 0.18 0.19 0.19 0.21 0.21 0.20 0.20 0.19 0.18 0.13 0.11 0.09 0.09 0.09 0.09 0.08 0.10 0.13 0.20 0.28 0.43 0.70 0.96 0.52 0.21 0.38 0.55 0.53 0.42 0.36 0.32
0.04 0.06 0.05 0.06 0.06 0.06 0.07 0.09 0.13 0.16 0.14 0.14 0.18 0.19 0.18 0.21 0.22 0.22 0.24 0.25 0.23 0.17 0.12 0.11 0.08 0.08 0.08 0.07 0.08 0.12 0.21 0.32 0.48 0.71 0.68 0.56 0.44 0.39 0.44 0.40 0.38 0.42 0.36
0.05 0.09 0.08 0.07 0.07 0.06 0.06 0.07 0.10 0.13 0.15 0.16 0.19 0.20 0.21 0.25 0.25 0.21 0.23 0.23 0.22 0.17 0.14 0.14 0.12 0.08 0.07 0.07 0.10 0.14 0.23 0.37 0.52 0.49 0.37 0.43 0.46 0.40 0.38 0.46 0.53 0.57 0.50
0.05 0.06 0.07 0.08 0.08 0.08 0.08 0.07 0.09 0.12 0.14 0.15 0.18 0.23 0.24 0.25 0.27 0.27 0.24 0.21 0.18 0.14 0.13 0.18 0.20 0.16 0.12 0.12 0.16 0.19 0.26 0.42 0.48 0.35 0.36 0.50 0.45 0.35 0.41 0.60 0.78 0.76 0.67
0.06 0.08 0.11 0.12 0.11 0.10 0.10 0.10 0.11 0.14 0.15 0.15 0.16 0.18 0.19 0.19 0.22 0.25 0.23 0.22 0.19 0.18 0.19 0.19 0.19 0.20 0.22 0.21 0.20 0.23 0.32 0.40 0.38 0.34 0.33 0.44 0.34 0.34 0.50 0.67 0.80 0.81 0.77
0.17 0.14 0.16 0.19 0.20 0.18 0.18 0.19 0.18 0.18 0.18 0.18 0.18 0.20 0.20 0.21 0.24 0.25 0.24 0.23 0.22 0.23 0.22 0.20 0.18 0.18 0.22 0.23 0.23 0.27 0.35 0.44 0.48 0.49 0.43 0.48 0.45 0.52 0.66 0.79 0.87 0.88 0.84
0.44 0.29 0.28 0.33 0.40 0.34 0.27 0.26 0.25 0.24 0.24 0.24 0.25 0.27 0.28 0.30 0.32 0.35 0.33 0.33 0.32 0.32 0.30 0.27 0.24 0.23 0.27 0.26 0.29 0.36 0.44 0.45 0.42 0.49 0.62 0.53 0.54 0.73 0.95 1.04 1.06 1.09 1.01
0.69 0.47 0.37 0.36 0.45 0.49 0.42 0.35 0.36 0.36 0.36 0.38 0.46 0.46 0.49 0.58 0.62 0.64 0.55 0.60 0.61 0.63 0.60 0.57 0.50 0.46 0.41 0.35 0.44 0.58 0.55 0.54 0.56 0.62 0.64 0.60 0.63 0.86 1.15 1.25 1.28 1.34 1.27
0.92 0.69 0.54 0.48 0.45 0.49 0.50 0.61 0.67 0.67 0.68 0.68 0.81 0.84 0.93 1.02 0.97 0.75 0.80 1.02 1.20 1.26 1.19 1.18 1.13 0.93 0.78 0.75 1.19 1.22 0.66 0.70 0.79 0.81 0.70 0.67 0.83 1.12 1.50 1.48 1.44 1.51 1.48
1.26 0.93 0.71 0.65 0.65 0.64 0.73 0.73 0.83 0.98 1.11 1.06 1.04 1.17 1.33 1.26 1.04 0.91 1.01 1.20 1.38 1.49 1.61 1.91 1.91 1.52 1.53 1.58 1.63 1.32 0.75 0.89 1.18 1.07 1.11 1.13 1.30 1.55 1.87 1.82 1.63 1.53 1.51
1.39 1.24 1.11 0.98 0.94 0.98 0.92 0.99 1.01 1.03 1.10 1.12 1.25 1.35 1.47 1.51 1.41 1.33 1.43 1.49 1.67 1.77 2.11 2.16 2.25 2.10 1.93 1.72 1.56 1.33 1.15 1.14 1.29 1.42 1.60 1.40 1.47 1.77 2.21 2.23 1.93 1.75 1.61
1.82 1.61 1.42 1.42 1.44 1.36 1.30 1.32 1.21 1.21 1.21 1.28 1.42 1.56 1.65 1.70 1.64 1.65 1.72 1.78 1.62 1.76 2.05 2.27 2.20 2.37 2.38 2.16 1.84 1.65 1.49 1.51 1.50 1.59 1.85 1.78 1.75 1.84 2.14 2.36 2.29 2.12 1.97
2.15 1.89 1.74 1.66 1.71 1.73 1.65 1.69 1.65 1.43 1.45 1.45 1.63 1.69 1.78 1.84 1.88 1.96 1.97 1.93 1.73 1.73 1.99 2.24 2.18 2.46 2.37 2.32 1.95 1.80 1.62 1.58 1.43 1.45 1.71 1.90 1.80 1.70 1.86 2.31 2.55 2.44 2.34
2.61 2.40 2.15 2.00 2.14 2.31 2.31 2.22 2.07 1.85 1.67 1.68 1.77 1.81 1.88 1.89 2.03 2.01 1.94 1.91 1.88 1.85 2.05 2.15 2.22 2.39 2.21 2.08 1.97 1.89 1.77 1.71 1.54 1.47 1.64 1.84 1.76 1.69 1.79 2.14 2.51 2.59 2.49
2.79 2.74 2.37 2.19 2.57 2.89 2.85 2.71 2.52 2.23 1.98 1.84 1.88 1.84 1.90 1.94 2.04 2.16 1.95 1.86 2.10 2.10 2.22 2.43 2.42 2.54 2.57 2.42 2.15 1.85 1.69 1.73 1.53 1.48 1.60 1.78 1.91 1.66 1.82 2.13 2.41 2.50 2.64
2.98 2.91 2.74 2.75 2.84 2.99 3.05 3.08 2.83 2.54 2.26 2.02 1.90 1.80 1.82 1.93 2.15 2.45 2.24 2.22 2.29 2.30 2.32 2.07 2.53 2.79 2.74 2.58 2.18 1.90 1.66 1.57 1.46 1.41 1.52 1.47 1.61 1.68 1.66 1.80 2.11 2.18 2.51
3.13 3.19 3.03 3.03 3.15 3.41 3.59 3.63 3.23 2.82 2.47 2.22 2.05 1.99 2.03 2.22 2.39 2.62 2.38 2.31 2.35 2.41 2.34 2.41 2.73 2.71 2.48 2.48 2.01 1.69 1.58 1.39 1.36 1.29 1.20 1.27 1.33 1.32 1.44 1.57 1.84 1.59 1.87
3.35 3.46 3.39 3.50 3.81 4.08 3.90 3.52 3.26 2.94 2.70 2.50 2.28 2.13 2.13 2.13 2.29 2.54 2.36 2.50 2.42 2.28 2.23 2.36 2.60 2.60 2.33 2.56 2.39 1.87 1.44 1.15 1.15 1.08 1.10 1.21 1.21 1.31 1.45 1.57 1.75 1.78 1.78
3.40 3.79 3.82 3.90 4.18 4.29 4.04 3.78 3.54 3.31 2.94 2.82 2.67 2.45 2.15 2.03 2.13 2.21 2.42 2.24 2.22 2.22 2.21 2.35 2.51 2.32 2.04 2.49 2.60 2.48 1.85 1.43 1.09 0.93 1.16 1.27 1.26 1.39 1.39 1.45 1.69 1.95 1.92
2.67 2.92 3.15 3.52 3.93 3.99 3.97 3.81 3.66 3.54 3.07 2.87 2.70 2.48 2.22 2.04 1.99 2.09 2.20 2.19 2.10 2.07 2.08 2.25 2.29 2.22 2.09 2.25 2.48 2.69 2.32 1.77 1.41 1.05 1.00 1.12 1.33 1.47 1.42 1.46 1.53 1.73 1.77
1.98 2.24 2.60 2.95 3.20 3.35 3.45 3.42 3.38 3.23 2.99 2.91 2.72 2.34 2.09 1.92 1.89 1.94 1.96 1.95 1.95 1.90 1.89 1.83 1.92 2.22 2.28 2.10 2.27 2.34 2.29 2.13 1.91 1.38 1.10 1.08 1.18 1.26 1.38 1.29 1.25 1.46 1.66
1.84 2.10 2.37 2.58 2.78 2.90 2.94 2.96 2.95 2.81 2.67 2.59 2.43 2.15 1.94 1.80 1.71 1.59 1.62 1.79 1.83 1.75 1.68 1.69 1.81 1.96 1.99 1.97 2.07 2.18 2.20 2.14 1.92 1.64 1.24 1.08 1.02 0.96 1.05 1.10 1.15 1.26 1.38
1.90 2.21 2.43 2.60 2.73 2.74 2.53 2.39 2.38 2.36 2.33 2.22 2.05 1.86 1.67 1.55 1.47 1.37 1.43 1.56 1.60 1.60 1.59 1.55 1.60 1.70 1.77 1.82 1.90 1.99 2.03 1.94 1.86 1.86 1.49 1.23 1.10 0.84 0.85 0.94 1.01 1.07 1.17